www.pogodaiklimat.ru

Погода и климат >> Архив погоды >> Россия >> Красноярский край >> Погорельский Бор


ПОГОДА в Погорельском Бору

  • Прогноз погоды в Погорельском Бору
  • Монитор погоды в Погорельском Бору

АРХИВ ПОГОДЫ в Погорельском Бору

Время (UTC), дата Ветер
(напр.,м/с)
 
Видим.   Явления Облачность Т
(С)
Тd
(С)
f
(%)
Тe
(С)
Тes
(С)
Комфортность P
(гПа)
Po
(гПа)
Тmin
(С)
Tmax
(С)
R
(мм)
R24
(мм)
S
(см)
18 14.05 штиль 0 н/о н/о -3.4 -4.3 93 -5 -5 1013.2 978.9
21 14.05 штиль 0 н/о н/о -4.9 -5.6 95 -6 -6 1012.2 977.8
00 15.05 штиль 0 н/о н/о -1.0 -2.5 90 -2 -2 1011.2 977.3 -5.6
06 15.05 З 1 н/о н/о +6.8 -6.1 39 +7 +7 1009.6 976.6
12 15.05 З 1 н/о н/о +7.6 -5.8 38 +8 +8 1010.8 977.9 +10.0
15 15.05 штиль 0 н/о н/о +2.5 -2.6 69 +2 +2 1013.9 980.3
18 15.05 штиль 0 н/о н/о +3.0 -2.8 66 +2 +2 1014.7 981.2
21 15.05 штиль 0 н/о н/о -0.2 -3.5 78 -1 -1 1015.5 981.5
00 16.05 З 1 н/о н/о +2.9 -2.8 66 +2 +2 1016.4 982.8 -0.8
03 16.05 З 2 н/о н/о +8.9 -6.7 33 +8 +8 1016.4 983.4
06 16.05 З 2 н/о н/о +9.7 -8.3 27 +9 +9 1016.0 983.2
09 16.05 Ю 1 н/о н/о +10.0 -6.9 30 +10 +10 1016.1 983.3
15 16.05 штиль 0 н/о н/о +3.1 -6.7 49 +3 +3 1019.1 985.4
18 16.05 штиль 0 н/о н/о +1.8 -6.1 56 +1 +1 1019.4 985.5
21 16.05 штиль 0 н/о н/о +0.8 -6.7 57 0 0 1019.8 985.8
00 17.05 ЮЗ 1 н/о н/о +3.9 -5.7 50 +3 +3 1020.5 986.8 +0.3
06 17.05 ЮЗ 1
{10}
н/о н/о +9.1 -5.3 36 +9 +9 1020.2 987.2
09 17.05 ЮЗ 3 н/о н/о +10.9 -10.0 22 +10 +10 1019.6 986.8
12 17.05 З 1 н/о н/о +9.1 -7.7 30 +9 +9 1020.4 987.4
15 17.05 штиль 0 н/о н/о +3.4 -5.5 52 +3 +3 1022.3 988.5
18 17.05 штиль 0 н/о н/о +4.2 -4.6 53 +4 +4 1022.8 989.1
21 17.05 штиль 0 н/о н/о -0.7 -5.8 68 -2 -2 1023.4 989.1
00 18.05 штиль 0 н/о н/о +5.0 -4.8 49 +5 +5 1023.2 989.6 -1.0
06 18.05 ЮЗ 2 н/о н/о +11.7 -8.3 24 +11 +11 1020.7 988.0
09 18.05 ЮЗ 2 н/о н/о +13.9 -9.8 18 +14 +14 1018.1 985.7
12 18.05 ЮЗ 1 н/о н/о +12.5 -8.1 23 +13 +13 1017.7 985.1 +14.4
15 18.05 штиль 0 н/о н/о +5.6 -6.8 40 +5 +5 1017.4 984.0
18 18.05 штиль 0 н/о н/о +6.1 -6.7 39 +6 +6 1016.2 983.0
21 18.05 штиль 0 н/о н/о +3.1 -6.9 48 +3 +3 1015.5 982.0
00 19.05 Ю 1 н/о н/о +8.6 -6.9 33 +9 +9 1014.2 981.3 +2.4
03 19.05 ЮВ 1 н/о н/о +15.2 -7.0 21 +16 +16 1011.8 979.7
06 19.05 Ю 2 н/о н/о +20.3 -9.1 13 +20 +20 1009.2 977.7
09 19.05 Ю 1 н/о н/о +22.5 -9.2 11 +20 +20 1006.7 975.5
12 19.05 Ю 2 н/о н/о +22.0 -9.6 11 +20 +20 1005.5 974.4 +22.6
15 19.05 штиль 0 н/о н/о +13.9 -7.1 23 +14 +14 1005.4 973.4
18 19.05 ЮЗ 1 н/о н/о +14.4 -5.1 26 +15 +15 1005.7 973.7
21 19.05 штиль 0 н/о н/о +11.7 -3.1 35 +12 +12 1005.5 973.3
00 20.05 ЮЗ 1 н/о н/о +14.6 -1.4 33 +15 +15 1006.1 974.2 +10.7
03 20.05 Ю 1 н/о н/о +15.7 +2.3 40 +17 +17 1006.6 974.8
06 20.05 Ю 2 н/о н/о +20.9 +5.0 35 +22 +22 комфорт 1004.2 973.0
09 20.05 ЮЗ 1 н/о н/о +16.0 +7.9 59 +17 +17 1004.6 972.9
12 20.05 ЮЗ 1 н/о н/о +17.6 +7.9 53 +19 +19 1004.2 972.7 +21.3 0.8
15 20.05 ЮЗ 2 н/о н/о +15.4 +1.8 40 +15 +15 1004.7 972.9
18 20.05 штиль 0 н/о н/о +10.0 +2.0 58 +10 +10 1004.1 971.7
21 20.05 ЮЗ 1 н/о н/о +12.7 +3.3 53 +13 +13 1001.8 969.9

 

Местоположение метеостанции Погорельский Бор (Красноярский край, Россия): широта 56.37 долгота 92.95 высота над уровнем моря 273 м.

В архиве по умолчанию представлена погода в Погорельском Бору за последнюю неделю. Архивные данные за месяц целиком и за предыдущие месяцы, начиная с января 2011 года, Вы можете получить, выбрав интересующий диапазон дат из раскрывающегося списка и нажав кнопку "Ввод!".


*Определитесь, кто Вы:
робот инопланетянин человек

Внимание! Время в таблицах - всемирное. Для получения местного времени необходимо прибавить поправку, которая равна 7 ч.

Смотрите также архив погоды в соседних городах и на ближайших метеорологических станциях:

Погода в Сухобузимском (Красноярский край, Россия) (25 км)
Погода в Минино (Красноярский край, Россия) (36 км)
Погода в Емельяново (Красноярский край, Россия) (36 км)
Погода в Железногорске (Красноярский край, Россия) (38 км)
Погода в Красноярске (Красноярский край, Россия) (40 км)
Погода в Роевом Ручье (Красноярский край, Россия) (47 км)
Погода в Каче (Красноярский край, Россия) (54 км)
Погода в Большой Мурте (Красноярский край, Россия) (60 км)
Погода в Шумихе (Красноярский край, Россия) (62 км)
Погода в Кемчуге (Красноярский край, Россия) (85 км)

Пояснения к столбцам:

Ветер - указаны скорость ветра в м/с - средняя за 10 мин, порывы в срок и между сроками (в фигурных скобках) и направление, откуда дует ветер: С - северный, СВ - северо-восточный, В - восточный, ЮВ - юго-восточный, Ю - южный, ЮЗ - юго-западный, З - западный, СЗ - северо-западный.
Видимость - горизонтальная дальность видимости в метрах или километрах. При видимости от 1 до 10 км при отсутствии осадков обычно наблюдается дымка, при ухудшении видимости до 1 км и менее - туман. В сухую погоду видимость может ухудшаться дымом, пылью или мглою.
Явления - указаны атмосферные явления, наблюдавшиеся в срок или в последний час перед сроком; фигурными скобками обозначены явления, наблюдавшиеся между сроками (за 1-3 часа до срока); квадратными скобками обозначены град или гололедные отложения с указанием их диаметра в мм.
Облачность - указаны через наклонную черту общая и нижняя облачность в баллах и высота нижней границы облаков в метрах; квадратными скобками обозначены формы облаков: Ci - перистые, Cs - перисто-слоистые, Cc - перисто-кучевые, Ac - высококучевые, As - высокослоистые, Sc - слоисто-кучевые, Ns - слоисто-дождевые, Cu - кучевые, Cb - кучево-дождевые. Подробнее классификацию облаков см. в Атласе облаков (PDF).
T - Температура воздуха - температура, измеренная на высоте 2 м над землей.
Td - Температура точки росы - температура, при понижении до которой содержащийся в воздухе водяной пар достигнет насыщения.
f - Относительная влажность воздуха - влажноcть воздуха, измеренная на высоте 2 м над землей.
Te - Эффективная температура - температура, которую ощущает одетый по сезону человек в тени. Характеристика душности погоды. При расчете учитывается влияние влажности воздуха и скорости ветра на теплоощущения человека.
Tes - Эффективная температура на солнце - температура, которую ощущает человек, с поправкой на солнечный нагрев. Характеристика знойности погоды. Зависит от высоты солнца над горизонтом, облачности и скорости ветра. Ночью, в пасмурную погоду, а также при ветре 12 м/с и более поправка равна нулю.
P - Атмосферное давление - приведенное к уровню моря атмосферное давление.
Po - Атмосферное давление - измеренное на уровне метеостанции атмосферное давление.
Tmin - Минимальная температура - минимум температуры воздуха на высоте 2 м над землей.
Tmax - Максимальная температура - максимум температуры воздуха на высоте 2 м над землей.
R - Количество осадков - Количество выпавших осадков за период времени, мм. При наведении курсора мыши на число - период времени, за который выпало указанное количество осадков.
R24 - Количество осадков - Количество выпавших осадков за 24 часа, мм.
S - Снежный покров - Высота снежного покрова, см. При наведении курсора мыши на число - состояние снежного покрова и степень покрытия местности в баллах.